#timestamp,LO_Frequency,Hit,StdDev 
1545127215.2,286047001.5,N
1545127235.1,286047001.7,N
1545127236.0,286047001.7,N
1545127255.8,286046999.7,N
1545127275.6,286047000.3,N
1545127295.5,286046999.8,N
1545127315.3,286047002.7,N
1545127335.2,286047002.2,N
1545127355.9,286047002.0,N
1545127375.7,286047001.6,N
1545127395.6,286047001.3,N
1545127415.4,286047003.8,N
1545127435.2,286047003.9,N
1545127455.1,286047001.8,N
1545127456.0,286047001.8,N
1545127475.8,286046999.8,N
1545127495.7,286047002.3,N
1545127515.5,286047002.7,N
1545127535.3,286047002.5,N
1545127555.2,286047002.3,N
1545127575.0,286047002.8,N
1545127575.9,286047002.8,N
1545127595.8,286047002.1,N
1545127615.6,286047001.4,N
1545127635.4,286047002.4,N
1545127655.3,286047001.8,N
1545127675.1,286047002.0,N
1545127695.9,286047001.7,N
1545127715.7,286047002.0,N
1545127735.6,286047002.5,N
1545127755.4,286047000.1,N
1545127775.2,286046999.8,N
1545127795.1,286047001.7,N
1545127796.0,286047001.7,N
1545127815.8,286047002.0,N
1545127835.7,286047003.7,Y
1545127855.5,286047000.1,P
1545127875.7,286046998.2,N
1545127895.6,286046999.3,N
1545127915.4,286046999.2,N
1545127935.2,286046998.5,N
1545127955.1,286046998.2,N
1545127956.0,286046998.2,N
1545127975.8,286047001.1,N
1545127995.6,286046998.6,N
1545128015.5,286046998.5,N
1545128035.3,286046998.7,N
1545128055.2,286046999.4,N
1545128075.9,286046997.8,N
1545128095.7,286046997.8,N
1545128115.6,286046996.7,N
1545128135.4,286046996.6,N
1545128155.2,286046996.6,N
1545128175.1,286046998.8,N
1545128176.0,286046998.8,N
1545128195.8,286046998.3,N
1545128215.7,286046998.2,N
1545128235.5,286046998.8,N
1545128255.3,286046998.4,N
1545128275.2,286046996.6,N
1545128295.0,286046996.6,N
1545128295.9,286046996.6,N
1545128315.7,286046999.6,N
1545128335.6,286046999.2,N
1545128355.4,286046998.2,N
1545128375.3,286047001.0,N
1545128395.1,286047000.0,N
1545128396.0,286047000.0,N
1545128415.8,286047001.1,N
1545128435.7,286046999.4,N
1545128455.5,286046999.1,N
1545128475.3,286047001.2,N
1545128495.2,286047002.4,N
1545128515.0,286046999.9,N
1545128515.9,286046999.9,N
1545128535.8,286047000.8,N
1545128555.6,286046999.1,N
1545128575.4,286046998.6,N
1545128595.3,286046998.8,N
1545128615.1,286046998.1,N
1545128635.9,286047001.1,N
1545128655.7,286046999.3,N
1545128675.5,286047000.6,N
1545128695.4,286046999.7,N
1545128715.2,286047002.6,N
1545128735.0,286047002.4,N
1545128735.9,286047002.4,N
1545128755.8,286047000.2,N
1545128775.6,286047001.2,N
1545128795.5,286046999.0,N
1545128815.3,286046999.3,N
1545128835.1,286046998.4,N
1545128855.9,286047000.7,N
1545128875.7,286046998.2,N
1545128895.6,286046998.4,N
1545128915.4,286046998.9,N
1545128935.2,286047000.6,N
1545128955.1,286047000.6,N
1545128956.0,286047000.6,N
1545128975.8,286047001.1,N
1545128995.6,286046999.4,N
1545129015.5,286046998.7,N
1545129035.3,286046998.1,N
1545129055.2,286047000.9,N
1545129075.9,286047000.0,N
1545129095.7,286047000.0,N
1545129115.6,286047000.9,N
1545129135.4,286047000.8,N
1545129155.2,286047000.8,N
1545129175.1,286046998.3,N
1545129176.0,286046998.3,N
1545129195.8,286046998.3,N
1545129215.7,286046998.4,N
1545129235.5,286046999.5,N
1545129255.3,286046998.5,N
1545129275.2,286047001.1,N
1545129295.0,286047000.1,N
1545129295.9,286047000.1,N
1545129315.7,286047002.3,N
1545129335.6,286047002.5,N
1545129355.4,286047002.6,N
1545129375.3,286047000.1,N
1545129395.1,286046998.4,N
1545129396.0,286046998.4,N
1545129415.8,286047000.1,N
1545129435.7,286047002.8,N
1545129455.5,286047001.9,N
1545129475.3,286046999.8,N
1545129495.2,286046999.8,N
1545129515.0,286047000.5,N
1545129515.9,286047000.5,N
1545129535.8,286047000.8,N
1545129555.6,286047002.2,N
1545129575.4,286047002.8,N
1545129595.3,286047002.3,N
1545129615.1,286047002.7,N
1545129635.9,286046999.8,N
1545129655.7,286046998.3,N
1545129675.6,286046996.9,N
1545129695.4,286046998.8,N
1545129715.2,286046996.6,N
1545129735.1,286046998.1,N
1545129736.0,286046998.1,N
1545129755.8,286047000.8,N
1545129775.6,286047000.9,N
1545129795.5,286047000.7,N
1545129815.3,286047000.8,N
1545129835.2,286046998.3,N
1545129855.3,286046998.7,N
1545129875.2,286046998.4,N
1545129895.9,286046998.7,N
1545129915.7,286046998.7,N
1545129935.6,286046999.6,N
1545129955.4,286046999.6,N
1545129975.2,286047001.1,N
1545129995.1,286046998.7,N
1545129996.0,286046998.7,N
1545130015.8,286046998.8,N
1545130035.7,286046999.0,N
1545130055.5,286046999.0,N
1545130075.3,286046999.1,N
1545130095.2,286046999.5,N
1545130115.0,286047000.7,N
1545130115.9,286047000.7,N
1545130135.8,286046998.3,N
1545130155.1,286046999.4,N
1545130175.8,286046998.7,N
1545130195.7,286047001.0,N
1545130215.5,286047000.6,N
1545130235.4,286046998.8,N
1545130255.2,286046998.3,N
1545130275.0,286046998.9,N
1545130275.9,286046998.9,N
1545130295.8,286047001.2,N
1545130315.6,286047001.2,N
1545130335.5,286047002.5,N
1545130355.3,286047002.2,N
1545130375.1,286047002.7,N
1545130395.9,286047000.0,N
1545130415.7,286046998.3,N
1545130435.6,286046998.2,N
1545130455.4,286046998.5,N
1545130475.2,286046998.7,N
1545130495.1,286046998.2,N
1545130496.0,286046998.2,N
1545130515.8,286047001.1,N
1545130535.6,286046998.6,N
1545130555.5,286046998.4,N
1545130575.3,286047001.0,N
1545130595.2,286046998.6,N
1545130615.9,286046998.5,N
1545130635.7,286047000.8,N
1545130655.6,286047001.0,N
1545130675.5,286046999.3,N
1545130695.3,286046996.8,N
1545130715.1,286046997.4,N
1545130735.9,286046996.7,N
1545130755.7,286046997.1,N
1545130775.5,286046996.9,N
1545130795.4,286046999.3,N
